This is the latest recevied weather packets stored in our database for station/object NN5DX-12. If no packets are shown the sender has not sent any weather packets the latest 10 day(s).
| Time | Temp. | Humidity | Pressure | Rain* | Wind** | Luminosity | Snow |
|---|---|---|---|---|---|---|---|
| 1777887316 | 7.78° C | 35% | 1017.7 hPa | 0 mm | - | - | - |
| 1777887017 | 7.78° C | 36% | 1017.9 hPa | 0 mm | - | - | - |
| 1777886718 | 7.22° C | 36% | 1017.4 hPa | 0 mm | - | - | - |
| 1777886417 | 7.22° C | 37% | 1017.4 hPa | 0 mm | - | - | - |
| 1777886117 | 6.67° C | 37% | 1017.4 hPa | 0 mm | - | - | - |
| 1777885818 | 6.11° C | 38% | 1016.9 hPa | 0 mm | - | - | - |
| 1777885517 | 5.56° C | 40% | 1016.9 hPa | 0 mm | - | - | - |
| 1777885218 | 5° C | 42% | 1016.4 hPa | 0 mm | - | - | - |
| 1777884917 | 4.44° C | 45% | 1016.5 hPa | 0 mm | - | - | - |
| 1777884617 | 4.44° C | 43% | 1016.6 hPa | 0 mm | - | - | - |
| 1777884317 | 4.44° C | 45% | 1016.6 hPa | 0 mm | - | - | - |
| 1777884017 | 3.89° C | 44% | 1016.7 hPa | 0 mm | - | - | - |
| 1777883718 | 3.89° C | 45% | 1016.6 hPa | 0 mm | - | - | - |
| 1777883418 | 3.89° C | 44% | 1016.6 hPa | 0 mm | - | - | - |
| 1777883118 | 3.89° C | 46% | 1017.8 hPa | 0 mm | - | - | - |
| 1777882817 | 3.89° C | 45% | 1017.8 hPa | 0 mm | - | - | - |
| 1777882518 | 3.89° C | 44% | 1017.9 hPa | 0 mm | - | - | - |
| 1777882217 | 3.89° C | 44% | 1017.8 hPa | 0 mm | - | - | - |
| 1777881918 | 3.89° C | 44% | 1017.9 hPa | 0 mm | - | - | - |
| 1777881617 | 3.89° C | 46% | 1018 hPa | 0 mm | - | - | - |
| 1777881318 | 4.44° C | 44% | 1017.5 hPa | 0 mm | - | - | - |
| 1777881018 | 4.44° C | 44% | 1017.5 hPa | 0 mm | - | - | - |
| 1777880717 | 4.44° C | 43% | 1017.5 hPa | 0 mm | - | - | - |
| 1777880418 | 4.44° C | 45% | 1017.6 hPa | 0 mm | - | - | - |
| 1777880117 | 4.44° C | 44% | 1017.6 hPa | 0 mm | - | - | - |
* Rain latest hour (hover to see other rain measurements)
** Current wind speed in m/s (hover to see current wind gust speed)